Location: Augirein
(42.9320°N, 0.9181°E)
Time: 21:22:16
(UTC+00:00)

Tiangong - Pass Details

Date: 03 October 2021
Orbit: 382 x 385 km, 41.5° (Epoch: 16 October)

Event Time Altitude Azimuth Distance (km) Brightness Sun altitude
Exits shadow 03:28:37 16° 94° (E) 1,098 4.0 -27.3°
Drops below altitude 10° 03:29:22 10° 92° (E) 1,399 4.7 -27.1°
Sets 03:31:27 0° 89° (E) 2,252 6.1 -26.8°
